Overview Statistics Trail Chart Weather Telemetry Raw packets
 

This is the latest recevied weather packets stored in our database for station/object DN9EM-3. If no packets are shown the sender has not sent any weather packets the latest 10 day(s).

<< 12 13 14 15 16 17 18 >>
Time Temp. Humidity Pressure Rain* Wind** Luminosity Snow
1788372620 17.78° C 81% 1019.5 hPa 0 mm - - -
1788372017 17.78° C 80% 1019.4 hPa 0 mm - - -
1788371414 17.78° C 80% 1019.3 hPa 0 mm - - -
1788370872 18.33° C 78% 1019.3 hPa 0 mm - - -
1788370270 18.33° C 78% 1019.3 hPa 0 mm - - -
1788369667 18.33° C 76% 1019.2 hPa 0 mm - - -
1788369064 18.89° C 75% 1019.3 hPa 0 mm - - -
1788368462 18.89° C 72% 1019.2 hPa 0 mm - - -
1788367859 18.89° C 73% 1019.3 hPa 0 mm - - -
1788367257 18.89° C 75% 1019.5 hPa 0 mm - - -
1788366654 18.89° C 74% 1019.6 hPa 0 mm - - -
1788366051 19.44° C 70% 1019.6 hPa 0 mm - - -
1788365449 19.44° C 68% 1019.6 hPa 0 mm - - -
1788364846 20° C 66% 1019.7 hPa 0 mm - - -
1788364244 20° C 65% 1019.5 hPa 0 mm - - -
1788363641 20° C 64% 1019.6 hPa 0 mm - - -
1788363039 20° C 65% 1019.5 hPa 0 mm - - -
1788362436 20° C 64% 1019.6 hPa 0 mm - - -
1788361852 20.56° C 65% 1019.5 hPa 0 mm - - -
1788361231 20.56° C 63% 1019.4 hPa 0 mm - - -
1788360628 21.11° C 63% 1019.5 hPa 0 mm - - -
1788360026 21.11° C 61% 1019.4 hPa 0 mm - - -
1788359423 21.67° C 58% 1019.4 hPa 0 mm - - -
1788358821 22.22° C 58% 1019.3 hPa 0 mm - - -
1788358218 23.33° C 56% 1019.1 hPa 0 mm - - -

* Rain latest hour (hover to see other rain measurements)
** Current wind speed in m/s (hover to see current wind gust speed)